Regional Weather Roundup
Issued by NWS

Home | Current Version | Previous Version | Graphics & Text | Print | Product List | Glossary On
Versions: 1 2 3 4 5 6 7 8 9 10 11 12 13 14 15 16 17 18 19 20 21 22 23 24 25 26 27 28 29 30 31 32 33 34 35 36 37 38 39 40 41 42 43 44 45 46 47 48 49 50
875
ASUS43 KLOT 291304
RWRIL

ILLINOIS REGIONAL WEATHER ROUNDUP
NATIONAL WEATHER SERVICE CHICAGO/ROMEOVILLE IL
800 AM CDT MON MAY 29 2017

NOTE: "FAIR" INDICATES FEW OR NO CLOUDS BELOW 12,000 FEET WITH NO
SIGNIFICANT WEATHER AND/OR OBSTRUCTIONS TO VISIBILITY.

* THESE STATIONS ARE NOT UNDER NWS QUALITY CONTROL. THEY ALSO MAY NOT
  REPORT WEATHER SUCH AS PRECIPITATION OR FOG.

ILZ001-002-007-009-015-016-024-291400-
NORTHWEST ILLINOIS

CITY           SKY/WX    TMP DP  RH WIND       PRES   REMARKS
MOLINE         CLOUDY    63  47  55 NW13      29.86R
STERLING*      MOSUNNY   61  51  70 W12       29.85S
SAVANNA*       CLOUDY    62  48  60 NW10      29.84F
$$

ILZ003-004-008-010-011-017-018-291400-
NORTH CENTRAL ILLINOIS

CITY           SKY/WX    TMP DP  RH WIND       PRES   REMARKS
ROCKFORD       PTSUNNY   66  49  54 W13       29.83R
FREEPORT*      PTSUNNY   59  50  71 W7        29.85R
ROCHELLE*      SUNNY     63  50  62 W9        29.83F
DE KALB*       SUNNY     64  49  57 W10       29.82S
PERU*          SUNNY     63  49  61 W7        29.84F
$$

ILZ005-006-012>014-019>023-291400-
NORTHEAST ILLINOIS

CITY           SKY/WX    TMP DP  RH WIND       PRES   REMARKS
CHICAGO-OHARE  MOSUNNY   66  49  54 W9        29.79S
CHICAGO-MIDWAY MOSUNNY   68  49  50 W7        29.80F
AURORA         SUNNY     66  51  58 W14       29.81F
LANSING*       SUNNY     66  55  66 W10       29.83R
JOLIET*        SUNNY     67  52  57 W7        29.83S
WAUKEGAN       SUNNY     66  48  52 W9        29.76F
DUPAGE AIRPORT SUNNY     66  49  54 W12       29.80F
KANKAKEE*      SUNNY     69  54  59 CALM      29.85S
WHEELING       SUNNY     66  48  52 W9        29.79S
MORRIS*        SUNNY     65  51  58 W9        29.82S
ROMEOVILLE*    SUNNY     65  53  65 W9        29.82F
NORTHERLY ISL    N/A     67  46  47 W3          N/A
$$

LMZ740>746-291400-
SOUTHERN LAKE MICHIGAN

STATION/POSITION SKY/WX   TEMP    WIND        PRES    VSBY  WAVE
                          AIR SEA DIR/SP/G                  HT/PER
                          (F)     (DEG/KT/KT) (MB)    (MI)  (FT/S)
SOUTHERN BUOY              52 47  240/ 12/ 12 1007.6          1
WILMETTE HARBOR            60 55  260/ 10/ 10   N/A           1/ 2
HARRISON CRIB              67     250/ 13/ 14   N/A
BURNHAM HARBOR             68     210/  9/  9   N/A
CALUMET HARBOR             65     230/  5/  8 1009.0R
BURNS HARBOR               65     240/ 10/ 12 1010.2R
MICHIGAN CITY              63     210/ 10/ 11   N/A
MICHIGAN CITY 6N           60 56  230/ 10/ 12   N/A           1/ 2
ST. JOSEPH                 61 59  230/ 12/ 14 1009.2R         1/ 2
$$

ILZ025>027-034>036-040-047-049-050-058-095>099-291400-
WEST-CENTRAL ILLINOIS

CITY           SKY/WX    TMP DP  RH WIND       PRES   REMARKS
QUINCY         SUNNY     64  54  69 SW7       29.89R
GALESBURG*     SUNNY     64  51  61 W12       29.86S
MACOMB*        SUNNY     65  51  61 W9        29.90R
JACKSONVILLE*  SUNNY     65  55  69 SW8       29.89S
PITTSFIELD*    SUNNY     66  56  70 S6        29.91S
$$

ILZ028>032-037-038-041>044-048-051>054-059>061-291400-
CENTRAL ILLINOIS

CITY           SKY/WX    TMP DP  RH WIND       PRES   REMARKS
PONTIAC        SUNNY     65  55  69 W9        29.86F
BLOOMINGTON    SUNNY     65  53  65 SW10      29.88S
DECATUR        SUNNY     67  55  65 W7        29.89S
PEORIA         SUNNY     63  53  70 W6        29.87R
LACON*         SUNNY     64  51  63 SW3       29.84S
LINCOLN*       SUNNY     68  56  65 SW3       29.87F
SPRINGFIELD    SUNNY     67  58  72 SW6       29.89F
TAYLORVILLE    SUNNY     66  56  71 SW5       29.90S
$$

ILZ033-039-045-046-055>057-062-063-291400-
EAST-CENTRAL ILLINOIS

CITY           SKY/WX    TMP DP  RH WIND       PRES   REMARKS
CHAMPAIGN      SUNNY     67  55  65 W8        29.88F
RANTOUL*       SUNNY     69  56  62 W8        29.88S
MATTOON        SUNNY     67  57  70 W8        29.89F
PARIS*         SUNNY     67  58  73 W8        29.90S
$$

ILZ079-100>102-291400-
SOUTHWEST ILLINOIS

CITY           SKY/WX    TMP DP  RH WIND       PRES   REMARKS
ALTON          MOSUNNY   64  57  77 W8        29.92S
BELLEVILLE     SUNNY     67  58  73 SW5       29.93R
CAHOKIA*       SUNNY     67  57  70 SW6       29.93R
SPARTA*        SUNNY     67  56  67 SW6       29.95R
$$

ILZ064>066-069>071-074>076-080>082-084>086-088>090-092>094-291400-
SOUTH-CENTRAL ILLINOIS

CITY           SKY/WX    TMP DP  RH WIND       PRES   REMARKS
CARBONDALE     SUNNY     68  61  78 S5        29.95R
CAIRO*         MOSUNNY   68  61  77 S5        29.97R
EFFINGHAM*     SUNNY     67  61  81 SW7       29.93S
MARION         MOSUNNY   68  63  83 SW6       29.96R
MT. VERNON       N/A     67  60  78 SW8       29.94R
CENTRALIA*     SUNNY     67  60  75 SW7       29.92S
SALEM*         SUNNY     68  58  69 SW7       29.93R
$$

ILZ067-068-072-073-078-083-087-091-291400-
SOUTHEAST ILLINOIS

CITY           SKY/WX    TMP DP  RH WIND       PRES   REMARKS
LAWRENCEVILLE  SUNNY     68  59  73 SW6       29.93R
FLORA*         MOSUNNY   69  59  70 SW6       29.93S
FAIRFIELD*     MOSUNNY   67  60  76 SW3       29.93R
HARRISBURG*    MOSUNNY   66  61  83 CALM      29.96R
ROBINSON*      PTSUNNY   67  58  71 W7        29.93R
CARMI*         SUNNY     68  60  76 SW6       29.94R
$$

ABBREVIATIONS USED IN REMARKS
   TC - TEMPERATURE IN CELSIUS
  WCI - WIND CHILL INDEX
   HX - HEAT INDEX
  VSB - VISIBILITY
$$





USA.gov is the U.S. government's official web portal to all federal, state and local government web resources and services.